Maple Lake, MN

8:33 PM CST on January 16, 2018 (GMT -0600)
Maple Lake Municipal

Weather History for KMGG - September, 2013

Change the Weather History Date:

Tuesday, September 17, 2013

  Actual Average (KSTC) Record (KSTC)
Temperature  
Mean Temperature 58 °F -  
Max Temperature 67 °F 70 °F 92 °F (1955)
Min Temperature 49 °F 46 °F 27 °F (1943)
Degree Days  
Heating Degree Days 8    
Growing Degree Days 8 (Base 50)    
Moisture  
Dew Point 52 °F    
Average Humidity 84    
Maximum Humidity 99    
Minimum Humidity 63    
Precipitation  
Precipitation 0.04 in - - ()
Sea Level Pressure  
Sea Level Pressure 30.10 in    
Wind  
Wind Speed 4 mph (SSE)    
Max Wind Speed 14 mph    
Max Gust Speed 21 mph    
Visibility 9 miles    
Events      
Averages and records for this station are not official NWS values.
T = Trace of Precipitation, MM = Missing Value Source: NWS Daily Summary

Daily Weather History Graph

Daily Weather History Graph

Search for Another Location

Airport or City:

Trip Planner

Search our weather history database for the weather conditions in past years. The results will help you decide how hot, cold, wet, or windy it might be!

Date:

Astronomy

Sep. 17, 2013 Rise Set
Actual Time 6:57 AM CDT 7:22 PM CDT
Civil Twilight 6:27 AM CDT 7:52 PM CDT
Nautical Twilight 5:52 AM CDT 8:26 PM CDT
Astronomical Twilight 5:16 AM CDT 9:02 PM CDT
Moon 6:12 PM CDT 4:48 AM CDT
Length of Visible Light 13h 24m
Length of Day
12h 25m
Waxing Gibbous, 96% of the Moon is Illuminated
Sep 17
Waxing Gibbous
Sep 19
Full
Sep 26
Last Quarter
Oct 4
New
Oct 11
First Quarter

Hourly Weather History & Observations

Time (CDT) Temp. Dew Point Humidity Pressure Visibility Wind Dir Wind Speed Gust Speed Precip Events Conditions
12:16 AM 51.3 °F 45.5 °F 81% 30.25 in 10.0 mi Calm Calm - N/A   Clear
12:36 AM 50.9 °F 45.5 °F 82% 30.25 in 10.0 mi SSE 3.5 mph - N/A   Clear
12:56 AM 51.3 °F 45.9 °F 82% 30.25 in 10.0 mi SSE 4.6 mph - N/A   Clear
1:16 AM 51.3 °F 46.4 °F 83% 30.24 in 10.0 mi SSE 3.5 mph - N/A   Clear
1:36 AM 50.9 °F 46.6 °F 85% 30.25 in 10.0 mi Calm Calm - N/A   Clear
1:56 AM 51.1 °F 46.8 °F 85% 30.25 in 10.0 mi South 3.5 mph - N/A   Clear
2:16 AM 50.4 °F 46.9 °F 88% 30.24 in 10.0 mi South 3.5 mph - N/A   Clear
2:36 AM 50.2 °F 47.3 °F 90% 30.23 in 10.0 mi Calm Calm - N/A   Clear
2:55 AM 50.0 °F 47.1 °F 90% 30.23 in 10.0 mi Calm Calm - N/A   Clear
3:16 AM 50.0 °F 47.3 °F 90% 30.23 in 10.0 mi SSE 3.5 mph - N/A   Clear
3:36 AM 50.0 °F 47.3 °F 90% 30.23 in 10.0 mi Calm Calm - N/A   Clear
3:56 AM 49.6 °F 47.3 °F 92% 30.23 in 10.0 mi Calm Calm - N/A   Clear
4:16 AM 49.3 °F 47.5 °F 94% 30.22 in 10.0 mi Calm Calm - N/A   Clear
4:36 AM 49.6 °F 48.2 °F 95% 30.22 in 10.0 mi Calm Calm - N/A   Mostly Cloudy
4:56 AM 50.9 °F 49.1 °F 94% 30.22 in 10.0 mi Calm Calm - N/A   Overcast
5:16 AM 51.3 °F 49.1 °F 92% 30.21 in 10.0 mi Calm Calm - N/A   Overcast
5:36 AM 51.4 °F 49.1 °F 92% 30.20 in 10.0 mi SSE 3.5 mph - N/A   Overcast
5:55 AM 51.3 °F 48.6 °F 90% 30.20 in 10.0 mi SE 4.6 mph - N/A   Overcast
6:16 AM 51.3 °F 48.2 °F 89% 30.19 in 10.0 mi SSE 3.5 mph - N/A   Overcast
6:36 AM 51.4 °F 47.7 °F 87% 30.19 in 10.0 mi SSE 3.5 mph - N/A   Overcast
6:56 AM 51.4 °F 47.5 °F 86% 30.19 in 10.0 mi SSE 3.5 mph - N/A   Overcast
7:16 AM 51.3 °F 47.5 °F 87% 30.19 in 10.0 mi SSE 4.6 mph - N/A   Overcast
7:36 AM 52.0 °F 47.7 °F 85% 30.19 in 10.0 mi SE 4.6 mph - N/A   Overcast
7:56 AM 52.7 °F 47.8 °F 84% 30.19 in 10.0 mi SSE 4.6 mph - N/A   Overcast
8:16 AM 53.2 °F 48.0 °F 82% 30.18 in 10.0 mi SSE 8.1 mph - N/A   Overcast
8:36 AM 53.8 °F 48.6 °F 82% 30.18 in 10.0 mi SSE 5.8 mph - N/A   Overcast
8:56 AM 54.5 °F 49.1 °F 82% 30.17 in 10.0 mi SSE 6.9 mph - N/A   Overcast
9:16 AM 55.4 °F 49.5 °F 80% 30.17 in 10.0 mi SSE 5.8 mph - N/A   Overcast
9:36 AM 55.9 °F 50.0 °F 80% 30.17 in 10.0 mi SSE 4.6 mph - N/A   Overcast
9:56 AM 56.8 °F 50.4 °F 79% 30.17 in 10.0 mi SSE 6.9 mph - N/A   Overcast
10:16 AM 57.2 °F 50.9 °F 79% 30.16 in 10.0 mi South 4.6 mph - N/A   Overcast
10:36 AM 58.3 °F 51.3 °F 77% 30.15 in 10.0 mi SSE 8.1 mph - N/A   Overcast
10:56 AM 59.4 °F 52.0 °F 77% 30.14 in 10.0 mi SSE 5.8 mph - N/A   Overcast
11:16 AM 60.6 °F 52.3 °F 74% 30.14 in 10.0 mi SSE 5.8 mph - N/A   Overcast
11:36 AM 62.1 °F 53.1 °F 72% 30.13 in 10.0 mi SSE 3.5 mph - N/A   Overcast
11:56 AM 63.5 °F 53.6 °F 70% 30.11 in 10.0 mi SSE 4.6 mph 16.1 mph N/A   Overcast
12:15 PM 66.6 °F 53.8 °F 63% 30.10 in 10.0 mi South 9.2 mph 20.7 mph N/A   Mostly Cloudy
12:36 PM 65.7 °F 54.1 °F 66% 30.10 in 10.0 mi SSE 8.1 mph 18.4 mph N/A   Mostly Cloudy
12:56 PM 66.2 °F 54.7 °F 66% 30.10 in 10.0 mi SSE 9.2 mph 17.3 mph N/A   Overcast
1:16 PM 66.2 °F 55.0 °F 67% 30.08 in 10.0 mi SSE 13.8 mph 19.6 mph N/A   Overcast
1:35 PM 65.3 °F 55.2 °F 70% 30.08 in 10.0 mi SE 9.2 mph 16.1 mph N/A   Overcast
1:56 PM 64.4 °F 55.2 °F 72% 30.08 in 10.0 mi SSE 9.2 mph 20.7 mph N/A   Overcast
2:16 PM 63.7 °F 54.7 °F 72% 30.07 in 10.0 mi SSE 6.9 mph 17.3 mph N/A   Overcast
2:36 PM 63.9 °F 55.6 °F 74% 30.06 in 10.0 mi SSE 5.8 mph - N/A   Overcast
2:56 PM 63.9 °F 55.6 °F 74% 30.05 in 10.0 mi SSE 10.4 mph - N/A   Overcast
3:16 PM 63.7 °F 55.0 °F 73% 30.04 in 10.0 mi SE 6.9 mph 18.4 mph N/A   Overcast
3:36 PM 63.9 °F 54.9 °F 72% 30.03 in 10.0 mi SE 8.1 mph 18.4 mph N/A   Overcast
3:55 PM 63.5 °F 54.9 °F 73% 30.03 in 10.0 mi SSE 6.9 mph - N/A   Overcast
4:16 PM 63.1 °F 54.5 °F 73% 30.02 in 10.0 mi SSE 8.1 mph 16.1 mph N/A   Overcast
4:36 PM 63.1 °F 54.1 °F 72% 30.01 in 10.0 mi SSE 9.2 mph 20.7 mph N/A   Overcast
4:56 PM 63.3 °F 54.1 °F 72% 30.01 in 10.0 mi SSE 6.9 mph 17.3 mph N/A   Overcast
5:16 PM 63.0 °F 54.5 °F 74% 30.00 in 10.0 mi SSE 5.8 mph - N/A   Overcast
5:36 PM 62.2 °F 54.0 °F 74% 30.00 in 10.0 mi SSE 11.5 mph 18.4 mph N/A   Overcast
5:56 PM 61.7 °F 54.5 °F 77% 30.00 in 10.0 mi SSE 9.2 mph 19.6 mph N/A   Overcast
6:16 PM 60.3 °F 55.6 °F 85% 30.00 in 10.0 mi SSE 6.9 mph - N/A   Overcast
6:36 PM 59.9 °F 55.8 °F 86% 30.00 in 10.0 mi SE 5.8 mph - N/A   Overcast
6:56 PM 59.4 °F 55.8 °F 88% 29.99 in 10.0 mi SSE 8.1 mph 16.1 mph N/A   Overcast
7:15 PM 59.2 °F 56.1 °F 90% 29.99 in 10.0 mi SE 8.1 mph - N/A   Overcast
7:36 PM 59.0 °F 56.3 °F 91% 29.98 in 10.0 mi SE 6.9 mph 16.1 mph N/A   Overcast
7:56 PM 58.5 °F 56.5 °F 93% 29.98 in 10.0 mi SSE 8.1 mph 17.3 mph N/A   Overcast
8:16 PM 58.3 °F 56.7 °F 94% 29.98 in 5.0 mi SE 8.1 mph - N/A   Overcast
8:36 PM 58.1 °F 56.8 °F 96% 29.98 in 4.0 mi SE 5.8 mph - N/A   Overcast
8:56 PM 58.1 °F 57.2 °F 97% 29.97 in 4.0 mi SE 6.9 mph - N/A   Overcast
9:16 PM 58.1 °F 57.2 °F 97% 29.97 in 4.0 mi SSE 5.8 mph - N/A   Drizzle
9:36 PM 58.1 °F 57.4 °F 97% 29.97 in 4.0 mi SSE 4.6 mph - N/A   Overcast
9:56 PM 58.1 °F 57.6 °F 98% 29.96 in 2.5 mi SSE 5.8 mph - N/A   Overcast
10:16 PM 58.3 °F 57.7 °F 98% 29.95 in 2.5 mi SSE 3.5 mph - 0.02 in   Heavy Drizzle
10:36 PM 58.3 °F 58.1 °F 99% 29.95 in 3.0 mi SSE 3.5 mph - 0.04 in   Drizzle
10:56 PM 58.5 °F 58.1 °F 99% 29.95 in 5.0 mi SSE 5.8 mph - 0.04 in   Overcast
11:16 PM 58.6 °F 58.3 °F 99% 29.95 in 5.0 mi SSE 4.6 mph - N/A   Overcast
11:36 PM 59.0 °F 58.6 °F 99% 29.94 in 4.0 mi SSE 4.6 mph - N/A   Overcast
11:56 PM 59.0 °F 58.6 °F 99% 29.94 in 4.0 mi SSE 4.6 mph - N/A   Overcast